This is the latest recevied weather packets stored in our database for station/object W4MSI. If no packets are shown the sender has not sent any weather packets the latest 10 day(s).
| Time | Temp. | Humidity | Pressure | Rain* | Wind** | Luminosity | Snow |
|---|---|---|---|---|---|---|---|
| 1778046588 | 12.78° C | 95% | 1007.3 hPa | 1.27 mm | - | 0 W/m² | - |
| 1778046285 | 13.33° C | 95% | 1007.1 hPa | 1.27 mm | - | 0 W/m² | - |
| 1778045980 | 13.89° C | 95% | 1007 hPa | 0 mm | - | 0 W/m² | - |
| 1778045679 | 14.44° C | 95% | 1007.2 hPa | 0 mm | - | 0 W/m² | - |
| 1778045377 | 15° C | 95% | 1007.1 hPa | 0 mm | - | 0 W/m² | - |
| 1778045075 | 15.56° C | 94% | 1006.9 hPa | 0 mm | - | 0 W/m² | - |
| 1778044772 | 16.11° C | 94% | 1006.6 hPa | 0 mm | - | 0 W/m² | - |
| 1778044469 | 16.67° C | 94% | 1006.5 hPa | 13.72 mm | - | 0 W/m² | - |
| 1778044166 | 16.67° C | 94% | 1006.7 hPa | 27.69 mm | - | 0 W/m² | - |
| 1778043864 | 17.22° C | 92% | 1006.4 hPa | 18.03 mm | - | 0 W/m² | - |
| 1778043560 | 18.33° C | 89% | 1006.5 hPa | 0 mm | - | 0 W/m² | - |
| 1778043257 | 17.78° C | 90% | 1005.4 hPa | 0 mm | - | 0 W/m² | - |
| 1778042954 | 17.78° C | 91% | 1005.4 hPa | 0 mm | - | 0 W/m² | - |
| 1778042652 | 17.78° C | 92% | 1005.2 hPa | 0 mm | - | 0 W/m² | - |
| 1778042349 | 17.78° C | 92% | 1005.5 hPa | 0 mm | - | 0 W/m² | - |
| 1778042046 | 17.22° C | 93% | 1005.6 hPa | 0 mm | - | 0 W/m² | - |
| 1778041744 | 17.22° C | 93% | 1005.6 hPa | 0 mm | - | 0 W/m² | - |
| 1778041443 | 17.22° C | 93% | 1005.7 hPa | 0 mm | - | 0 W/m² | - |
| 1778041141 | 17.22° C | 93% | 1005.6 hPa | 0 mm | - | 0 W/m² | - |
| 1778040838 | 17.22° C | 94% | 1005.8 hPa | 0 mm | - | 0 W/m² | - |
| 1778040536 | 17.22° C | 94% | 1005.7 hPa | 0 mm | - | 0 W/m² | - |
| 1778040233 | 17.22° C | 94% | 1005.8 hPa | 1.78 mm | - | 0 W/m² | - |
| 1778039928 | 16.67° C | 94% | 1005.9 hPa | 3.05 mm | - | 0 W/m² | - |
| 1778039626 | 17.22° C | 93% | 1005.6 hPa | 4.83 mm | - | 0 W/m² | - |
| 1778039323 | 16.67° C | 93% | 1005.7 hPa | 1.78 mm | - | 0 W/m² | - |
* Rain latest hour (hover to see other rain measurements)
** Current wind speed in m/s (hover to see current wind gust speed)